[[{"header":{"parameterUnit":"m.s-1","parameterCategory":1,"la1":30.2991,"la2":30.254,"lo1":-89.0895,"lo2":-89.0444,"dy":0.0017,"dx":0.0017,"nx":28,"ny":28,"refTime":"2023-09-21T03:00:00:Z","depth":0,"parameterNumber":2,"parameterNumberName":"U-component_of_WINDS"},"data":[0,0,0,0,0,0,0,0,0,0,0,0,0,0,0,0,0,0,0,0,0,0,0,0,0,0,0,0,0,0,0,0,0,0,0,0,0,0,0,0,0,0,0,0,0,0,0,0,0,0,0,0,0,0,0,0,0,0,-2.9505,-2.9505,0,-2.9468,-2.9468,-2.9468,-2.9392,-2.9391,-2.9389,-2.9388,-2.9353,-2.9353,-2.9353,0,0,0,0,0,0,0,0,0,0,0,0,0,-2.9513,-2.9513,-2.9505,-2.9505,-2.9504,-2.9469,-2.9468,-2.9468,-2.9393,-2.9391,-2.9389,-2.9387,-2.9352,-2.9353,-2.9354,0,0,0,0,0,0,0,0,0,0,0,0,0,-2.9496,-2.9513,-2.9505,-2.9462,-2.9458,-2.9469,-2.9468,-2.9467,-2.9393,-2.9391,-2.9388,-2.9386,-2.9352,-2.9353,-2.9354,-2.9403,0,0,-2.9356,-2.9356,0,0,0,0,0,0,0,0,-2.9497,-2.9496,-2.9469,-2.9465,-2.9461,-2.9432,-2.9458,-2.9446,-2.9393,-2.9418,-2.9388,-2.9385,-2.9381,-2.9379,-2.9378,-2.9402,-2.94,-2.9356,-2.9356,-2.9357,-2.9357,0,0,0,0,0,0,0,-2.9499,-2.9497,-2.9491,-2.9469,-2.9464,-2.9446,-2.9441,-2.9455,-2.9413,-2.9415,-2.941,-2.9406,-2.9378,-2.9377,-2.9376,-2.94,-2.9356,-2.9356,-2.9357,-2.9357,-2.9466,-2.9468,0,0,0,0,0,0,-2.9506,-2.9499,-2.9492,-2.9489,-2.9474,-2.9448,-2.9442,-2.9444,-2.9412,-2.9405,-2.9408,-2.9403,-2.9377,-2.9375,-2.9375,-2.9433,-2.9357,-2.9357,-2.9358,-2.9464,-2.9467,-2.9469,0,0,0,0,0,0,-2.9506,-2.9506,-2.9493,-2.9493,-2.949,-2.945,-2.9452,-2.9444,-2.9443,-2.9407,-2.9399,-2.9415,-2.9375,-2.9374,-2.9397,-2.9431,-2.9358,-2.9358,-2.9461,-2.9464,-2.9468,-2.9549,0,0,0,0,0,0,-2.9507,-2.9506,-2.9524,-2.9493,-2.949,-2.9516,-2.9454,-2.9445,-2.9444,-2.9437,-2.9411,-2.9404,-2.9373,-2.9397,-2.9398,-2.943,-2.9359,-2.9457,-2.9462,-2.9467,-2.9543,-2.9555,-2.9565,0,0,0,0,0,-2.9507,-2.9548,-2.9525,-2.9525,-2.9511,-2.9518,-2.9516,-2.9478,-2.9447,-2.9465,-2.9443,-2.9405,-2.9426,-2.94,-2.9401,-2.9434,-2.9455,-2.9461,-2.9466,-2.9538,-2.9553,-2.9565,0,0,0,0,0,0,-2.9583,-2.9543,-2.9517,-2.9549,-2.9538,-2.9505,-2.9527,-2.9494,-2.9492,-2.9485,-2.9439,-2.9434,-2.9465,-2.9451,-2.9422,-2.9482,-2.9435,-2.9441,-2.949,-2.9503,-2.9514,-2.9517,-2.9359,0,0,0,0,0,-2.9604,-2.9612,-2.9576,-2.9608,-2.9604,-2.9567,-2.9568,-2.954,-2.9526,-2.9521,-2.95,-2.9489,-2.9493,-2.9497,-2.9499,-2.954,-2.9535,-2.9564,-2.9575,-2.9584,-2.959,-2.9614,-2.9627,-2.9487,-2.9487,-2.9487,0,0,-2.9647,-2.9626,-2.9633,-2.9623,-2.9611,-2.9622,-2.9563,-2.9576,-2.9584,-2.9523,-2.9545,-2.9529,-2.9514,-2.9548,-2.9561,-2.9537,-2.9628,-2.9591,-2.9599,-2.96,-2.9621,-2.9635,-2.9646,-2.9491,-2.949,-2.949,0,0,-2.973,-2.9714,-2.974,-2.9729,-2.9711,-2.9686,-2.9693,-2.9665,-2.9653,-2.9673,-2.9629,-2.9638,-2.9646,-2.9638,-2.9634,-2.9717,-2.9684,-2.9719,-2.9777,-2.9801,-2.9812,-2.9821,-2.9853,-2.9865,-2.9725,-2.9725,-2.9725,0,-2.9786,-2.9799,-2.9758,-2.9774,-2.9772,-2.9718,-2.9745,-2.9736,-2.972,-2.9721,-2.9694,-2.9704,-2.9689,-2.9722,-2.9742,-2.974,-2.9748,-2.9722,-2.9813,-2.9822,-2.9831,-2.9861,-2.9873,-2.973,-2.9729,-2.9729,-2.9728,0,-2.987,-2.988,-2.9903,-2.9889,-2.989,-2.9911,-2.9875,-2.988,-2.9853,-2.9832,-2.9855,-2.9836,-2.9834,-2.9839,-2.9813,-2.9869,-2.9855,-2.9821,-2.9774,-2.9849,-2.9877,-2.9888,-2.9736,-2.9735,-2.9733,-2.9732,0,0,-3.0,-2.9964,-2.9974,-2.9968,-2.9945,-2.9952,-2.9973,-2.997,-2.9977,-2.9968,-2.9986,-2.9994,-2.9964,-2.996,-2.9932,-2.9953,-3.0023,-2.9917,-2.9916,-2.9939,-3.0087,-3.0114,-3.0128,-3.0,-3.0002,-3.0004,-3.0089,0,-3.008,-3.0112,-3.0076,-3.0117,-3.0127,-3.0076,-3.0094,-3.0083,-3.0064,-3.0071,-3.005,-3.0058,-3.0015,-3.0013,-3.0031,-3.0011,-3.0053,-3.0004,-3.0018,-3.0019,-3.0026,-3.0142,-3.017,-3.0251,-3.0099,-3.0101,-3.0102,0,-3.0177,-3.0174,-3.0215,-3.0192,-3.0195,-3.0211,-3.0208,-3.0214,-3.0201,-3.0186,-3.0184,-3.015,-3.017,-3.0123,-3.0152,-3.012,-3.0123,-3.0115,-3.0117,-3.0118,-3.0067,-3.0149,-3.0276,-3.0289,-3.0119,-3.0117,-3.0116,0,-3.0272,-3.0277,-3.0303,-3.0299,-3.0271,-3.0285,-3.0274,-3.0259,-3.0261,-3.0258,-3.0259,-3.0259,-3.0259,-3.0261,-3.0229,-3.0197,-3.0263,-3.0212,-3.0253,-3.0254,-3.027,-3.027,-3.0402,-3.0269,-3.0269,-3.0269,-3.0269,0,-3.0366,-3.0394,-3.0345,-3.0361,-3.0392,-3.0351,-3.0383,-3.0367,-3.0354,-3.0368,-3.0323,-3.0337,-3.0294,-3.0304,-3.0279,-3.0308,-3.0308,-3.0298,-3.0291,-3.0303,-3.0305,-3.0306,-3.0301,-3.0272,-3.0271,-3.0271,-3.027,0,-3.0477,-3.0445,-3.047,-3.0442,-3.0436,-3.046,-3.0437,-3.0452,-3.043,-3.0448,-3.045,-3.0417,-3.0427,-3.0395,-3.0399,-3.0383,-3.0426,-3.0409,-3.0431,-3.0426,-3.0469,-3.0467,-3.0609,-3.0627,-3.0481,-3.0482,-3.0483,0,-3.054,-3.056,-3.0535,-3.0541,-3.0533,-3.0542,-3.0544,-3.0505,-3.0509,-3.0497,-3.0514,-3.052,-3.0523,-3.0541,-3.0518,-3.0522,-3.0506,-3.0556,-3.0507,-3.0519,-3.051,-3.051,-3.0513,-3.0567,-3.0569,-3.057,-3.0571,0,-3.0656,-3.064,-3.0644,-3.0643,-3.0647,-3.0645,-3.0639,-3.0647,-3.0605,-3.0613,-3.0622,-3.0624,-3.0629,-3.0637,-3.0636,-3.0626,-3.0593,-3.0587,-3.0597,-3.061,-3.0623,-3.0619,-3.0461,-3.0584,-3.0583,-3.0582,-3.0581,-3.0581,-3.0746,-3.0763,-3.0749,-3.0755,-3.0747,-3.0744,-3.0758,-3.0738,-3.0745,-3.0746,-3.0722,-3.0737,-3.0726,-3.0721,-3.0715,-3.0728,-3.0705,-3.0719,-3.0723,-3.0727,-3.0736,-3.0619,-3.0727,-3.0727,-3.0726,-3.0726,-3.0726,0,-3.0862,-3.0851,-3.0857,-3.0852,-3.0858,-3.0825,-3.0818,-3.0826,-3.0839,-3.0831,-3.0835,-3.0847,-3.0855,-3.0833,-3.0838,-3.0852,-3.0837,-3.0855,-3.0855,-3.0854,-3.0754,-3.0747,-3.0867,-3.0867,-3.0867,-3.0867,-3.0867,-3.0867,-3.0923,-3.0951,-3.0933,-3.0958,-3.0946,-3.096,-3.0959,-3.0957,-3.095,-3.0966,-3.0972,-3.0957,-3.0944,-3.0948,-3.0954,-3.0948,-3.0953,-3.0977,-3.0965,-3.0874,-3.086,-3.0847,-3.0839,-3.0977,-3.0977,-3.1063,-3.1064,-3.1065]},{"header":{"parameterUnit":"m.s-1","parameterCategory":1,"la1":30.2991,"la2":30.254,"lo1":-89.0895,"lo2":-89.0444,"dy":0.0017,"dx":0.0017,"nx":28,"ny":28,"refTime":"2023-09-21T03:00:00:Z","depth":0,"parameterNumber":3,"parameterNumberName":"V-component_of_WINDS"},"data":[0,0,0,0,0,0,0,0,0,0,0,0,0,0,0,0,0,0,0,0,0,0,0,0,0,0,0,0,0,0,0,0,0,0,0,0,0,0,0,0,0,0,0,0,0,0,0,0,0,0,0,0,0,0,0,0,0,0,-0.5964,-0.5965,0,-0.5998,-0.5998,-0.5998,-0.6003,-0.6003,-0.6002,-0.6002,-0.6038,-0.6039,-0.604,0,0,0,0,0,0,0,0,0,0,0,0,0,-0.5907,-0.5908,-0.5964,-0.5965,-0.5965,-0.5997,-0.5998,-0.5998,-0.6003,-0.6003,-0.6002,-0.6002,-0.6038,-0.6039,-0.604,0,0,0,0,0,0,0,0,0,0,0,0,0,-0.5935,-0.5908,-0.5964,-0.5971,-0.5972,-0.5997,-0.5998,-0.5999,-0.6003,-0.6003,-0.6002,-0.6002,-0.6037,-0.6039,-0.6041,-0.6062,0,0,-0.6046,-0.6047,0,0,0,0,0,0,0,0,-0.5934,-0.5937,-0.597,-0.5971,-0.5972,-0.5996,-0.5991,-0.602,-0.6003,-0.5991,-0.6002,-0.6002,-0.6024,-0.6027,-0.6035,-0.6063,-0.6065,-0.6047,-0.6048,-0.6049,-0.6049,0,0,0,0,0,0,0,-0.5932,-0.5936,-0.5977,-0.597,-0.5972,-0.5974,-0.5977,-0.5996,-0.601,-0.5992,-0.5993,-0.5997,-0.6025,-0.6033,-0.6035,-0.6065,-0.6047,-0.6048,-0.6049,-0.605,-0.6115,-0.6115,0,0,0,0,0,0,-0.5928,-0.5934,-0.5976,-0.5978,-0.5951,-0.5975,-0.5979,-0.5989,-0.601,-0.6013,-0.5997,-0.5997,-0.603,-0.6033,-0.6037,-0.6064,-0.6048,-0.605,-0.6051,-0.6114,-0.6115,-0.6115,0,0,0,0,0,0,-0.5927,-0.5932,-0.5975,-0.5957,-0.5962,-0.5976,-0.5987,-0.5989,-0.5997,-0.6013,-0.6016,-0.6002,-0.603,-0.6034,-0.6056,-0.6065,-0.6051,-0.6053,-0.6113,-0.6114,-0.6115,-0.6118,0,0,0,0,0,0,-0.5925,-0.5931,-0.5939,-0.5957,-0.5963,-0.5993,-0.5988,-0.599,-0.6,-0.6,-0.6019,-0.6022,-0.603,-0.6053,-0.6057,-0.6068,-0.6054,-0.6113,-0.6114,-0.6115,-0.6117,-0.6119,-0.612,0,0,0,0,0,-0.5923,-0.5938,-0.5939,-0.5944,-0.5973,-0.5993,-0.5997,-0.6005,-0.6001,-0.6009,-0.602,-0.6021,-0.6063,-0.6055,-0.606,-0.6071,-0.6112,-0.6113,-0.6115,-0.6116,-0.6118,-0.612,0,0,0,0,0,0,-0.5922,-0.5941,-0.5942,-0.5963,-0.5977,-0.5994,-0.6005,-0.6007,-0.6022,-0.6021,-0.6031,-0.6035,-0.6057,-0.6066,-0.6056,-0.6093,-0.6087,-0.609,-0.6087,-0.6089,-0.609,-0.6088,-0.6056,0,0,0,0,0,-0.5924,-0.5938,-0.5954,-0.5972,-0.5978,-0.599,-0.5999,-0.6004,-0.6019,-0.6025,-0.6037,-0.6051,-0.6068,-0.6079,-0.6094,-0.6118,-0.6123,-0.6128,-0.6129,-0.6131,-0.6133,-0.6148,-0.6151,-0.612,-0.612,-0.612,0,0,-0.5929,-0.5941,-0.5949,-0.5972,-0.5983,-0.5999,-0.5995,-0.6011,-0.6024,-0.6027,-0.6049,-0.6058,-0.6075,-0.6098,-0.6108,-0.6106,-0.6143,-0.6132,-0.6133,-0.6135,-0.6149,-0.6152,-0.6155,-0.6121,-0.612,-0.612,0,0,-0.5946,-0.5956,-0.5972,-0.5983,-0.5999,-0.6007,-0.6011,-0.6028,-0.6035,-0.6056,-0.606,-0.6074,-0.6102,-0.6114,-0.6124,-0.6146,-0.6149,-0.6151,-0.616,-0.6174,-0.6177,-0.6179,-0.6189,-0.6192,-0.6153,-0.6153,-0.6153,0,-0.595,-0.5973,-0.598,-0.5997,-0.6007,-0.6011,-0.6028,-0.6038,-0.6059,-0.6067,-0.6063,-0.6099,-0.6111,-0.6137,-0.6143,-0.615,-0.6156,-0.615,-0.6176,-0.6178,-0.618,-0.619,-0.6193,-0.6154,-0.6154,-0.6154,-0.6154,0,-0.5978,-0.5994,-0.6005,-0.6025,-0.6037,-0.6053,-0.6064,-0.6075,-0.6079,-0.6087,-0.611,-0.6124,-0.6143,-0.615,-0.6154,-0.6177,-0.6175,-0.6174,-0.6168,-0.6184,-0.6193,-0.6196,-0.6154,-0.6154,-0.6154,-0.6154,0,0,-0.5995,-0.6019,-0.6024,-0.6033,-0.6052,-0.6065,-0.6082,-0.6101,-0.6111,-0.6125,-0.6141,-0.6165,-0.6164,-0.6175,-0.618,-0.6192,-0.6211,-0.619,-0.619,-0.6195,-0.624,-0.6242,-0.6246,-0.6212,-0.6213,-0.6214,-0.6239,0,-0.6016,-0.6047,-0.6054,-0.6081,-0.6097,-0.61,-0.6116,-0.6129,-0.6138,-0.6153,-0.6163,-0.618,-0.6176,-0.6183,-0.6195,-0.6206,-0.6221,-0.6204,-0.6229,-0.623,-0.6226,-0.6251,-0.6253,-0.6277,-0.6243,-0.6243,-0.6244,0,-0.6044,-0.6059,-0.6087,-0.6105,-0.6112,-0.6125,-0.6144,-0.6158,-0.6174,-0.6179,-0.6192,-0.6196,-0.6216,-0.6208,-0.6236,-0.6225,-0.6235,-0.6242,-0.6243,-0.6247,-0.6239,-0.6257,-0.6284,-0.6289,-0.6249,-0.6248,-0.6248,0,-0.6056,-0.6083,-0.6104,-0.6112,-0.6133,-0.6143,-0.6152,-0.6167,-0.6178,-0.6194,-0.6202,-0.622,-0.623,-0.6245,-0.6254,-0.6248,-0.6282,-0.6275,-0.6288,-0.6288,-0.6297,-0.6297,-0.6328,-0.63,-0.63,-0.63,-0.63,0,-0.6079,-0.6096,-0.611,-0.6123,-0.6143,-0.6152,-0.6172,-0.6181,-0.6195,-0.6211,-0.6214,-0.6229,-0.624,-0.6257,-0.6264,-0.6287,-0.6291,-0.6297,-0.6299,-0.6298,-0.6298,-0.6306,-0.6306,-0.6301,-0.6301,-0.6301,-0.6301,0,-0.6096,-0.6106,-0.6129,-0.6147,-0.6152,-0.6166,-0.6182,-0.6195,-0.6204,-0.6224,-0.6229,-0.6243,-0.6262,-0.6273,-0.6298,-0.6303,-0.6329,-0.6329,-0.6324,-0.6325,-0.6339,-0.6338,-0.6378,-0.6385,-0.6351,-0.6351,-0.6352,0,-0.6111,-0.6125,-0.6144,-0.6155,-0.6164,-0.6181,-0.6193,-0.6201,-0.6214,-0.6233,-0.6245,-0.6264,-0.6281,-0.6313,-0.6326,-0.6345,-0.6347,-0.6359,-0.635,-0.6348,-0.6349,-0.6349,-0.6352,-0.6362,-0.6362,-0.6362,-0.6363,0,-0.6137,-0.6141,-0.6157,-0.6176,-0.6189,-0.6204,-0.6219,-0.6228,-0.6239,-0.6252,-0.6273,-0.6285,-0.6311,-0.6331,-0.6352,-0.6362,-0.6365,-0.6365,-0.637,-0.637,-0.6367,-0.637,-0.633,-0.6365,-0.6365,-0.6364,-0.6364,-0.6364,-0.6155,-0.6168,-0.6184,-0.6202,-0.6214,-0.6228,-0.6242,-0.6252,-0.6269,-0.6291,-0.6295,-0.6317,-0.6333,-0.6361,-0.6372,-0.639,-0.6388,-0.6394,-0.6395,-0.6397,-0.6399,-0.6362,-0.6393,-0.6393,-0.6393,-0.6393,-0.6393,0,-0.6182,-0.6193,-0.621,-0.623,-0.6245,-0.6246,-0.6262,-0.6275,-0.6294,-0.6309,-0.6325,-0.635,-0.6369,-0.6384,-0.6404,-0.6416,-0.6418,-0.6421,-0.6422,-0.6424,-0.6399,-0.6394,-0.642,-0.642,-0.642,-0.642,-0.642,-0.642,-0.6199,-0.6221,-0.6228,-0.6257,-0.6267,-0.6289,-0.6299,-0.6312,-0.6324,-0.6351,-0.6368,-0.6376,-0.6392,-0.6414,-0.6432,-0.6436,-0.6444,-0.6448,-0.6452,-0.6429,-0.6426,-0.6423,-0.6419,-0.6449,-0.6449,-0.6477,-0.6477,-0.6477]}]]